Location: Étouvelles
(49.5207°N, 3.5808°E)
Time: 23:46:30
(UTC+00:00)

Cosmos 540 Rocket - Pass Details

Date: 01 October 2023
Orbit: 737 x 752 km, 74.1° (Epoch: 03 December)

Event Time Altitude Azimuth Distance (km) Brightness Sun altitude
Rises 20:08:03 0° 339° (NNW) 3,185 7.4 -26.4°
Reaches altitude 10° 20:10:30 10° 346° (NNW) 2,259 6.4 -26.8°
Enters shadow 20:14:15 39° 23° (NNE) 1,101 4.3 -27.3°
